TimeCET,TemperatureF,Dew PointF,Humidity,Sea Level PressureIn,VisibilityMPH,Wind Direction,Wind SpeedMPH,Gust SpeedMPH,PrecipitationIn,Events,Conditions,WindDirDegrees,DateUTC
12:45 AM,39.2,37.4,93,30.04,3.1,NW,5.8,-,N/A,Rain,Light Rain,320,2013-02-13 23:45:00
1:00 AM,38,38,99,30.03,3,NW,4.5,,,Rain,Light Rain,320,2013-02-14 00:00:00
1:45 AM,37.4,37.4,100,30.04,2.5,NNW,5.8,-,N/A,Rain,Light Rain,330,2013-02-14 00:45:00
2:45 AM,37.4,37.4,100,30.04,1.9,NNW,4.6,-,N/A,Rain,Light Rain,330,2013-02-14 01:45:00
3:45 AM,37.4,37.4,100,30.04,1.9,NW,4.6,-,N/A,Rain,Light Rain,310,2013-02-14 02:45:00
4:45 AM,37.4,37.4,100,30.04,1.6,NNE,6.9,-,N/A,Rain,Rain,20,2013-02-14 03:45:00
5:15 AM,37.4,37.4,100,30.04,1.9,North,4.6,-,N/A,Rain,Rain,360,2013-02-14 04:15:00
5:45 AM,37.4,37.4,100,30.06,1.6,NNE,5.8,-,N/A,Rain,Light Rain,20,2013-02-14 04:45:00
6:15 AM,37.4,37.4,100,30.06,1.2,NNE,2.3,-,N/A,Rain,Light Rain,20,2013-02-14 05:15:00
6:45 AM,37.4,37.4,100,30.06,0.9,North,3.5,-,N/A,Rain,Light Rain,360,2013-02-14 05:45:00
7:00 AM,38,37,97,30.07,1,North,2.2,,,Rain,Light Rain,0,2013-02-14 06:00:00
7:11 AM,-9999,-9999,N/A,-9999,-9999.0,North,-9999.0,-,N/A,,Overcast,0,2013-02-14 06:11:00
7:15 AM,37.4,37.4,100,30.06,0.7,North,4.6,-,N/A,,Overcast,10,2013-02-14 06:15:00
7:45 AM,37.4,37.4,100,30.06,0.7,North,3.5,-,N/A,Rain,Light Rain,10,2013-02-14 06:45:00
8:15 AM,39.2,37.4,93,30.09,0.9,NNW,2.3,-,N/A,Rain,Light Rain,340,2013-02-14 07:15:00
8:45 AM,39.2,39.2,100,30.09,1.1,North,3.5,-,N/A,Rain,Light Rain,350,2013-02-14 07:45:00
9:15 AM,39.2,39.2,100,30.09,1.4,NNE,2.3,-,N/A,Rain,Light Rain,30,2013-02-14 08:15:00
9:45 AM,39.2,39.2,100,30.09,1.8,NNE,2.3,-,N/A,Rain,Light Rain,30,2013-02-14 08:45:00
10:15 AM,41.0,41.0,100,30.09,3.1,NE,4.6,-,N/A,Rain,Light Rain,40,2013-02-14 09:15:00
11:15 AM,42.8,41.0,93,30.09,6.2,East,4.6,-,N/A,Rain,Light Rain,80,2013-02-14 10:15:00
11:45 AM,42.8,41.0,93,30.09,6.2,ENE,3.5,-,N/A,,Overcast,60,2013-02-14 10:45:00
12:15 PM,42.8,41.0,93,30.09,6.2,East,3.5,-,N/A,Rain,Light Rain,90,2013-02-14 11:15:00
12:45 PM,42.8,41.0,93,30.09,6.2,East,2.3,-,N/A,Rain,Light Rain,90,2013-02-14 11:45:00
1:00 PM,43,41,89,30.10,9,East,2.2,,,Rain,Light Rain,90,2013-02-14 12:00:00
1:15 PM,42.8,41.0,93,30.09,6.2,East,1.2,-,N/A,Rain,Light Rain,80,2013-02-14 12:15:00
1:45 PM,44.6,41.0,87,30.09,5.0,ESE,1.2,-,N/A,Rain,Light Rain,110,2013-02-14 12:45:00
2:15 PM,44.6,39.2,81,30.09,6.2,SSE,3.5,-,N/A,Rain,Light Rain,160,2013-02-14 13:15:00
2:45 PM,44.6,39.2,81,30.09,6.2,SSW,1.2,-,N/A,Rain,Light Rain,210,2013-02-14 13:45:00
3:15 PM,44.6,39.2,81,30.09,3.7,Calm,Calm,-,N/A,,Overcast,0,2013-02-14 14:15:00
3:45 PM,42.8,42.8,100,30.06,4.3,NE,4.6,-,N/A,,Overcast,40,2013-02-14 14:45:00
4:15 PM,42.8,42.8,100,30.06,3.1,NNE,4.6,-,N/A,,Mostly Cloudy,20,2013-02-14 15:15:00
4:45 PM,42.8,42.8,100,30.06,2.2,North,5.8,-,N/A,,Mostly Cloudy,10,2013-02-14 15:45:00
5:15 PM,42.8,42.8,100,30.06,2.2,North,5.8,-,N/A,,Mostly Cloudy,10,2013-02-14 16:15:00
5:45 PM,41.0,41.0,100,30.06,2.5,NNE,6.9,-,N/A,,Overcast,30,2013-02-14 16:45:00
6:15 PM,41.0,41.0,100,30.09,2.5,NE,5.8,-,N/A,,Overcast,50,2013-02-14 17:15:00
6:45 PM,41.0,41.0,100,30.09,2.8,NNE,5.8,-,N/A,,Overcast,30,2013-02-14 17:45:00
7:00 PM,41,41,100,30.09,3,NNE,4.5,,,,Mist,30,2013-02-14 18:00:00
7:15 PM,41.0,41.0,100,30.09,2.8,NE,4.6,-,N/A,,Overcast,40,2013-02-14 18:15:00
7:45 PM,41.0,41.0,100,30.09,2.5,NE,4.6,-,N/A,,Mostly Cloudy,40,2013-02-14 18:45:00
8:15 PM,41.0,41.0,100,30.09,2.5,NE,4.6,-,N/A,,Mostly Cloudy,50,2013-02-14 19:15:00
8:45 PM,41.0,41.0,100,30.09,2.5,ENE,2.3,-,N/A,,Mostly Cloudy,60,2013-02-14 19:45:00
9:45 PM,41.0,41.0,100,30.09,2.5,NNE,2.3,-,N/A,,Overcast,20,2013-02-14 20:45:00
10:45 PM,39.2,39.2,100,30.09,1.2,North,2.3,-,N/A,,Overcast,10,2013-02-14 21:45:00
11:01 PM,39.2,39.2,100,30.09,0.5,NNE,2.3,-,N/A,Fog,Fog,20,2013-02-14 22:01:00
11:45 PM,39.2,39.2,100,30.06,0.2,NNE,3.5,-,N/A,Fog,Fog,30,2013-02-14 22:45:00